Location: Embarras
(53.3000°N, 116.9000°W)
Time: 04:12:20
(UTC+00:00)

NOAA 15 - Visible Passes

Search period start: 07 December 2023 00:00
Search period end: 17 December 2023 00:00
Orbit: 796 x 811 km, 98.6° (Epoch: 06 December)

Date Brightness Start Highest point End Pass type
(mag) Time Alt. Az. Time Alt. Az. Time Alt. Az.
07 Dec 6.2 00:14:02 10° ENE 00:16:27 13° NE 00:18:51 10° NNE visible
07 Dec 4.6 01:50:01 10° SE 01:55:09 54° ENE 02:00:19 10° N visible
07 Dec 6.3 03:30:38 10° SSW 03:35:12 29° W 03:39:48 10° NNW visible
07 Dec 7.6 14:00:09 10° ENE 14:02:18 12° E 14:04:28 10° ESE visible
08 Dec 5.1 01:24:55 10° SE 01:29:43 37° ENE 01:34:32 10° N visible
08 Dec 5.6 03:04:21 10° S 03:09:25 45° W 03:14:30 10° NNW visible
09 Dec 5.5 01:00:07 10° ESE 01:04:22 25° ENE 01:08:39 10° N visible
09 Dec 4.8 02:38:27 10° S 02:43:44 69° WSW 02:49:01 10° NNW visible
09 Dec 7.4 04:22:15 10° WSW 04:24:30 13° W 04:26:45 10° WNW visible
09 Dec 6.8 14:47:02 10° NNE 14:51:36 29° E 14:56:06 10° SSE visible
10 Dec 5.9 00:35:38 10° E 00:39:06 18° NE 00:42:35 10° N visible
10 Dec 4.4 02:12:50 10° SSE 02:18:08 79° ENE 02:23:26 10° NNW visible
10 Dec 6.9 03:54:42 10° SW 03:58:30 20° W 04:02:20 10° NW visible
10 Dec 7.3 14:22:02 10° NE 14:25:43 19° E 14:29:21 10° SE visible
11 Dec 6.3 00:11:41 10° ENE 00:13:56 13° NE 00:16:10 10° NNE visible
11 Dec 4.7 01:47:30 10° SE 01:52:37 52° ENE 01:57:44 10° N visible
11 Dec 6.3 03:28:00 10° SSW 03:32:38 30° W 03:37:17 10° NNW visible
11 Dec 7.7 13:57:49 10° ENE 13:59:42 12° E 14:01:35 10° ESE visible
12 Dec 5.1 01:22:26 10° SE 01:27:11 35° ENE 01:31:57 10° N visible
12 Dec 5.5 03:01:46 10° S 03:06:51 46° W 03:11:57 10° NNW visible
12 Dec 6.0 15:09:49 10° NNE 15:14:49 42° E 15:19:46 10° S visible
13 Dec 5.6 00:57:39 10° ESE 01:01:51 25° NE 01:06:02 10° N visible
13 Dec 4.7 02:35:53 10° S 02:41:10 72° WSW 02:46:28 10° NNW visible
13 Dec 7.4 04:19:26 10° WSW 04:21:53 13° W 04:24:21 10° NW visible
13 Dec 6.8 14:44:32 10° NE 14:49:00 28° E 14:53:27 10° SSE visible
14 Dec 6.0 00:33:14 10° E 00:36:35 17° NE 00:39:57 10° N visible
14 Dec 4.4 02:10:18 10° SSE 02:15:34 76° ENE 02:20:52 10° NNW visible
14 Dec 6.9 03:52:01 10° SW 03:55:55 21° W 03:59:51 10° NW visible
14 Dec 7.4 14:19:34 10° NE 14:23:06 18° E 14:26:38 10° SE visible
15 Dec 6.3 00:09:22 10° ENE 00:11:25 12° NE 00:13:28 10° NNE visible
15 Dec 4.7 01:44:59 10° SE 01:50:04 50° ENE 01:55:09 10° N visible
15 Dec 6.2 03:25:22 10° SSW 03:30:03 31° W 03:34:45 10° NNW visible
15 Dec 7.7 13:55:32 10° ENE 13:57:06 11° E 13:58:39 10° E visible
16 Dec 5.2 01:19:56 10° ESE 01:24:39 34° ENE 01:29:21 10° N visible
16 Dec 5.4 02:59:11 10° S 03:04:16 48° W 03:09:24 10° NNW visible
16 Dec 6.1 15:07:16 10° NNE 15:12:14 41° E 15:17:09 10° SSE visible
